GFSFLT1_con_3kmhel_270.txt.gz
Helicity
225 253 282 317 352 362 351 339 370 251 260 254 309 290 243 251 263 233 251 224 214 208 197 174 129 171 156 140 136 133 69 72
214 245 274 310 338 350 364 364 247 216 224 231 254 196 221 278 255 284 285 212 236 204 203 164 187 112 133 138 137 124 84 99
226 260 309 308 272 250 272 302 307 285 224 205 165 180 224 176 184 255 249 234 224 167 184 161 174 115 181 165 142 61 74 130
210 274 249 206 196 169 203 232 228 229 221 194 134 153 212 223 212 164 156 133 132 130 128 130 130 111 107 111 120 111 70 59
165 153 178 155 119 88 93 93 128 144 141 138 139 111 89 83 84 78 85 83 68 66 52 46 60 76 116 118 128 86 74 54
80 73 50 49 47 49 54 79 104 98 96 83 96 109 80 83 86 90 79 59 48 55 40 27 20 12 21 42 60 73 55 32
110 80 49 47 39 37 46 64 68 71 67 60 49 45 52 55 57 47 44 30 33 51 44 44 42 41 33 26 16 29 28 32
93 64 56 49 54 44 34 41 47 45 50 57 51 46 45 42 37 30 32 29 25 38 26 25 19 18 23 29 30 35 44 44
52 35 37 41 42 44 38 39 34 37 34 28 20 20 8 10 14 9 8 11 9 17 20 12 8 7 8 5 -4 1 13 15
46 34 25 28 24 11 11 24 26 25 19 17 21 14 22 25 31 21 14 10 11 14 16 19 20 20 14 5 -6 -5 -3 7
57 40 47 44 27 21 23 19 31 20 33 21 16 18 26 21 15 10 -1 -4 6 7 9 1 -4 -8 -20 -32 -17 -18 4 13
66 62 77 71 53 27 17 26 34 37 38 33 40 29 22 13 6 5 6 2 2 -3 -9 -13 -12 -11 -27 -10 -10 -0 5 6
123 123 124 98 72 49 29 29 48 37 37 46 38 29 28 29 23 15 2 -6 -16 -19 -15 -13 -3 -0 -20 -8 -5 6 -2 -3
206 204 154 101 86 66 61 46 51 48 56 55 49 46 42 37 31 23 13 -0 -1 -5 -7 -7 2 -15 1 2 5 6 2 -7
263 221 154 99 85 72 81 61 63 64 66 55 51 47 48 39 28 22 11 -3 -6 -23 -35 -21 -10 -40 -7 -9 -0 3 -12 -1
282 244 176 114 103 96 102 89 83 75 72 64 53 52 51 46 40 24 7 -2 -11 -31 -28 -18 -19 -40 -18 -7 10 -6 -3 15
289 239 193 121 121 121 121 109 97 92 85 73 60 67 66 62 46 29 19 9 -5 -11 -14 -17 -12 -23 10 27 37 14 20 17
317 251 181 149 142 162 129 112 114 110 89 76 77 75 73 63 48 46 45 27 1 1 -3 -8 -11 -17 21 35 56 31 36 45
305 242 218 211 202 163 168 147 135 116 107 100 90 85 78 69 65 60 41 23 22 5 -7 -2 -7 7 41 51 50 37 40 56

GFSFLT1_con_3kmhel_273.txt.gz
Helicity
203 194 192 190 209 253 307 341 319 286 308 267 250 239 257 217 193 233 219 200 202 196 184 181 179 155 153 160 159 158 130 136
188 192 188 189 233 257 279 296 289 200 246 222 235 212 239 240 230 224 229 228 237 221 166 172 158 142 160 167 141 129 126 175
194 205 220 244 256 248 247 238 211 221 162 196 181 198 206 192 190 234 246 209 169 133 116 105 109 86 110 116 113 97 87 100
166 179 204 229 248 238 228 212 214 206 166 167 175 187 142 168 186 149 129 127 124 120 115 102 92 85 73 71 69 73 47 43
152 175 210 214 202 185 197 207 215 209 188 176 166 148 136 115 106 105 102 112 93 71 56 49 43 29 42 35 37 40 46 55
132 152 176 173 149 161 165 176 171 161 149 136 124 124 113 91 70 55 58 63 68 59 46 38 36 31 40 50 52 50 28 21
149 175 170 147 114 107 105 130 143 138 129 118 104 85 67 64 73 66 58 47 44 55 46 41 39 39 44 41 45 52 46 42
153 144 133 107 87 84 88 96 97 92 90 88 83 77 75 77 62 54 47 39 37 41 32 34 28 31 31 33 43 43 46 47
114 83 88 80 70 70 81 80 78 72 69 61 50 48 47 50 60 44 32 27 27 27 24 26 27 28 30 31 31 35 37 31
107 84 85 80 66 56 62 69 71 67 66 62 69 70 65 52 45 36 34 35 29 36 30 23 20 23 29 29 27 33 25 20
125 108 96 90 79 65 61 63 57 54 60 60 57 51 46 44 44 52 50 37 36 28 16 1 -5 -2 4 1 -1 14 11 12
153 130 112 95 90 77 64 64 68 61 62 50 44 41 47 49 54 51 40 31 23 14 -5 -9 -6 -4 6 2 1 8 6 5
186 177 149 105 86 81 64 61 59 58 55 53 57 55 57 61 51 39 32 24 3 -2 5 -6 -12 -4 -4 -3 -3 -7 -14 -18
253 216 139 97 94 95 76 62 64 61 64 69 65 66 62 55 45 35 22 14 12 7 2 -3 -11 1 3 3 3 -9 -19 -25
281 200 141 97 97 106 87 69 66 63 67 69 69 61 54 49 47 41 35 25 24 23 14 1 -9 2 5 -0 -11 -33 -27 -11
261 235 163 113 113 128 111 92 75 68 76 72 72 64 58 57 54 43 36 36 29 19 8 4 -15 -4 -8 -5 -22 -34 -14 4
311 247 158 135 127 140 130 112 88 70 76 77 68 60 60 58 56 46 41 38 33 27 21 5 -3 -8 -2 6 -13 -20 -8 -0
351 276 220 172 167 190 129 111 98 77 83 75 64 63 68 69 61 62 61 49 34 35 31 13 8 13 23 25 14 11 4 20
378 321 225 200 220 199 170 134 104 92 82 74 68 70 82 77 78 75 63 53 50 33 30 21 13 26 27 40 24 34 38 36

GFSFLT1_con_3kmhel_279.txt.gz
Helicity
152 135 137 148 133 133 150 178 203 228 237 228 231 151 211 131 152 146 159 139 116 132 111 135 133 130 105 90 75 64 54 47
166 167 137 138 119 138 138 153 178 174 221 239 132 115 110 99 126 170 144 122 121 155 128 128 108 84 68 59 49 40 50 31
170 152 138 117 100 132 150 170 174 191 155 218 143 155 187 132 127 133 134 146 158 155 136 104 103 58 59 58 62 55 48 39
156 153 160 158 134 131 145 148 156 149 139 123 126 90 108 132 111 133 150 149 146 125 111 88 65 62 60 65 73 79 63 51
167 172 180 187 181 162 139 136 145 123 90 104 89 108 143 131 115 121 115 127 110 92 83 68 69 56 64 56 57 55 65 72
181 196 192 183 174 165 161 162 173 158 163 143 120 142 94 94 88 86 87 74 73 73 65 65 59 56 58 66 69 77 60 58
172 206 217 200 183 177 175 185 180 164 147 132 138 103 86 69 70 61 56 54 57 65 65 67 72 73 75 72 65 72 69 67
205 212 188 185 178 181 189 189 183 155 133 119 107 99 95 73 60 60 56 60 69 82 82 88 84 79 76 63 71 71 75 70
187 189 181 192 190 188 201 188 181 145 130 120 112 92 89 85 81 74 78 81 80 85 86 87 89 84 70 65 68 64 65 61
196 234 236 201 189 188 189 186 171 140 128 123 121 109 102 95 85 82 85 83 79 90 86 85 85 77 74 64 69 70 65 57
275 244 239 209 197 212 201 166 148 142 132 123 120 114 103 91 87 98 102 93 93 86 82 82 80 78 83 77 74 67 61 56
254 230 257 232 212 201 181 165 158 141 127 126 121 113 104 96 98 96 90 96 94 89 85 88 87 92 87 78 61 63 62 53
161 169 253 262 215 184 156 156 146 125 122 123 124 111 101 97 100 93 95 104 95 94 90 92 86 81 71 64 61 51 43 38
181 213 269 267 202 179 152 159 131 118 118 115 117 105 97 105 101 104 104 94 100 92 91 88 79 71 67 58 47 38 29 28
181 210 264 240 195 159 150 164 137 119 123 115 111 112 117 113 111 109 103 96 99 92 75 73 70 75 69 50 28 24 18 28
217 244 246 220 210 174 149 168 148 137 130 127 132 141 132 129 126 112 102 96 89 76 66 65 69 72 62 42 5 19 20 21
250 225 208 235 251 201 180 178 175 148 144 148 151 146 138 136 120 109 99 92 76 66 65 63 67 65 52 36 9 -9 19 32
223 187 273 319 295 267 200 193 177 156 161 163 154 142 138 123 109 100 89 85 76 71 67 62 68 67 53 23 -4 -8 24 35
118 231 316 328 306 261 211 184 197 173 170 167 150 141 134 120 110 98 90 79 74 74 64 53 59 65 57 32 -26 -3 30 35

GFSFLT1_con_3kmhel_282.txt.gz
Helicity
182 149 138 268 180 191 194 197 196 208 235 248 212 199 170 153 145 112 160 150 198 142 92 146 125 150 104 86 76 69 23 -29
172 263 331 309 154 165 163 164 164 186 221 217 182 188 112 149 140 155 146 171 179 185 115 175 144 82 72 68 63 80 6 -9
223 252 253 177 149 148 150 152 149 156 177 158 171 124 188 198 179 182 136 146 160 168 195 142 152 48 48 61 82 100 43 8
225 217 211 176 144 142 149 149 155 185 207 267 259 192 139 123 150 163 171 153 165 160 120 115 85 73 47 51 109 88 82 59
186 208 211 186 143 152 157 153 143 158 146 168 133 115 154 233 187 141 144 143 131 104 116 94 79 71 112 79 96 81 94 77
189 207 201 234 204 137 147 139 146 152 87 137 177 311 212 194 162 131 103 102 108 101 109 112 96 84 65 57 70 95 77 81
206 200 228 280 243 275 239 207 221 222 248 228 255 200 194 144 89 87 85 78 85 99 86 88 93 68 56 81 71 88 89 90
255 253 277 287 288 266 239 239 229 241 249 270 250 211 185 167 102 84 69 68 82 90 86 82 69 74 89 85 86 87 89 86
264 259 284 280 280 251 227 235 232 223 243 234 224 191 149 147 133 124 127 106 81 74 73 78 93 107 90 87 95 71 76 56
278 234 296 305 301 253 275 248 238 233 233 222 183 218 190 183 184 152 127 91 76 83 83 98 109 121 112 80 88 78 72 59
350 376 256 301 293 263 285 250 240 243 248 228 227 236 180 128 128 138 139 136 100 91 106 109 117 120 118 90 74 68 65 54
484 448 413 306 331 348 274 249 273 271 265 233 232 190 161 143 146 122 121 111 108 116 127 122 117 119 103 87 65 74 66 58
554 402 394 350 313 292 261 261 296 286 246 263 230 197 161 154 143 142 128 138 138 145 130 124 123 106 94 87 88 75 73 71
534 546 392 362 316 278 239 286 281 254 281 241 230 198 177 169 157 148 152 151 141 143 125 134 123 115 110 88 84 73 64 57
495 516 395 348 259 228 236 265 229 219 269 232 217 188 177 166 154 143 144 131 140 130 133 126 126 134 120 103 73 66 54 52
502 535 451 469 290 316 267 237 222 215 247 218 215 208 186 169 165 163 157 155 147 132 134 133 122 121 108 77 48 53 52 55
453 514 502 411 383 364 279 248 219 234 219 210 221 223 198 188 186 188 187 187 150 138 127 121 130 117 102 69 43 36 37 58
348 477 547 497 440 361 285 243 250 242 219 230 239 220 206 202 206 187 189 168 154 156 142 139 126 108 83 51 37 32 37 59
382 458 496 518 425 366 283 263 242 231 247 251 232 246 232 212 197 191 185 173 164 153 127 125 117 92 76 48 21 18 49 58

GFSFLT1_con_3kmhel_288.txt.gz
Helicity
351 485 480 424 347 331 322 304 296 341 348 302 270 233 194 182 180 184 189 177 183 181 185 165 151 142 157 196 151 87 58 95
523 626 612 548 429 362 305 298 260 306 330 317 287 240 230 222 211 198 211 217 215 211 192 174 160 171 186 158 77 90 191 182
546 562 558 455 390 344 293 277 251 254 255 257 247 270 262 256 229 242 232 239 248 228 195 174 161 178 201 143 60 75 239 168
570 560 538 453 367 293 248 242 238 241 265 286 350 332 336 332 285 301 268 260 266 227 186 172 170 159 138 117 99 94 130 250
577 488 447 395 297 252 229 220 223 219 257 292 313 326 322 273 261 262 276 263 240 218 197 183 161 121 133 128 120 113 85 124
462 422 399 340 309 272 222 204 220 235 247 277 310 343 333 304 290 301 277 278 239 200 187 169 136 121 128 123 142 159 154 152
376 397 503 422 358 307 282 261 241 249 252 280 303 340 330 299 298 300 273 265 243 205 177 139 115 116 131 137 152 175 162 167
495 580 582 523 396 333 317 305 258 239 240 282 319 317 309 274 286 284 273 253 213 177 152 133 126 118 138 157 171 167 131 126
555 631 694 648 476 376 340 295 264 234 224 265 287 301 293 266 279 267 227 208 172 158 152 132 135 133 143 152 150 141 127 123
563 634 723 707 628 548 395 323 291 269 246 270 267 307 323 305 280 245 227 207 183 178 157 144 139 147 139 126 123 129 131 122
605 643 670 729 645 583 426 398 373 344 289 300 308 322 344 346 315 263 230 213 194 190 182 153 148 153 135 120 115 109 130 116
595 633 687 680 659 531 535 454 432 418 390 373 358 379 381 372 331 278 242 223 191 196 189 164 150 143 124 121 118 111 124 116
466 613 703 695 683 617 567 516 461 434 425 434 405 392 394 391 328 283 272 219 183 186 190 173 155 141 123 112 110 108 116 122
480 707 701 738 729 665 602 502 480 493 495 458 438 395 388 362 318 290 264 232 211 191 200 198 178 139 128 112 111 111 122 103
402 563 701 727 722 703 657 480 468 512 485 410 425 399 375 355 330 301 269 245 248 231 222 222 202 174 145 108 114 117 131 117
358 535 691 846 874 652 444 419 438 474 489 431 415 415 381 349 325 312 301 271 269 238 235 220 201 190 163 139 120 129 138 131
339 465 616 752 744 659 436 400 442 453 455 434 437 395 373 316 326 336 329 306 281 242 212 193 173 164 155 151 131 132 120 106
241 475 407 369 420 478 396 472 557 500 470 476 412 369 347 323 322 336 325 297 271 239 208 182 163 149 132 147 129 124 125 107
79 1 226 396 509 561 676 564 572 564 522 464 361 354 344 331 333 327 324 282 251 222 200 178 174 151 130 132 126 134 128 131

GFSFLT1_con_3kmhel_291.txt.gz
Helicity
244 261 225 238 263 245 269 269 253 244 260 278 272 233 194 163 142 144 148 149 147 151 152 144 140 168 182 158 147 206 206 311
282 358 370 377 306 292 291 289 269 301 307 309 281 239 209 205 195 185 187 180 174 192 182 168 150 152 137 123 147 183 250 309
326 347 353 342 319 267 294 285 282 294 321 325 282 272 226 226 225 237 218 217 209 197 197 186 163 148 165 153 116 147 199 189
328 318 336 375 379 363 323 292 273 282 316 341 359 325 307 285 282 275 248 234 239 205 213 178 149 142 151 106 86 136 172 191
322 315 400 481 434 415 371 340 290 281 312 340 331 336 310 253 282 278 273 259 251 219 191 171 157 147 139 109 104 134 176 210
374 379 426 421 499 521 445 353 313 313 316 320 340 315 289 331 339 326 287 271 251 219 195 175 166 148 129 115 132 156 135 131
385 381 435 399 413 467 429 397 337 311 321 302 307 326 335 361 335 325 282 275 260 221 204 188 156 141 134 141 156 181 187 203
409 415 447 426 445 451 446 368 324 314 311 334 323 314 301 303 295 288 277 274 247 211 201 174 152 132 137 148 175 186 192 216
413 376 443 546 543 471 459 405 375 337 317 349 338 325 313 298 274 262 253 230 208 185 193 176 152 141 143 160 184 204 214 211
266 341 443 545 534 521 586 495 402 419 401 398 352 348 320 291 272 261 233 240 218 210 197 176 157 150 160 173 177 191 201 174
261 375 510 559 578 521 524 457 440 421 434 409 383 342 315 296 282 273 242 240 238 228 209 180 159 152 158 184 184 174 183 164
292 357 454 555 540 514 543 511 523 476 421 421 372 356 353 330 299 262 243 248 228 232 212 179 159 152 155 184 169 169 171 149
308 356 494 515 585 580 569 551 476 448 445 443 391 381 363 359 334 258 243 242 242 234 209 188 166 150 150 151 154 145 135 131
112 310 445 472 512 543 563 526 474 507 509 465 407 428 394 365 340 305 254 266 265 249 226 196 161 146 147 143 140 135 140 132
62 224 377 398 465 528 554 577 611 557 453 457 454 412 371 358 331 325 296 281 283 252 224 201 165 149 139 141 145 150 154 149
269 199 325 395 457 561 631 637 526 428 393 424 439 430 390 383 367 333 330 312 284 257 249 221 190 164 146 144 147 157 166 161
272 306 154 222 364 520 624 602 593 465 377 402 465 487 432 381 364 372 351 347 308 271 245 223 202 176 158 145 156 163 149 133
195 129 188 115 259 450 557 557 550 490 412 428 415 484 437 391 385 386 387 341 300 266 253 227 196 182 169 158 164 155 138 122
234 167 110 91 136 278 373 407 488 460 377 394 433 444 489 437 390 373 368 333 276 247 237 202 201 169 163 160 173 171 167 140